| time (UTC) | temp F | wind direction | speed MPH | gust MPH | rain 1hr in | rain 24hr in | rain mn in | humidity % | barometer mb |
| 20260904154517 | 80 | 134 | 1.0 | 7.0 | 0.00 | 0.00 | 0.00 | 57 | 1008.0 |
| 20260904154017 | 81 | 61 | 2.0 | 5.0 | 0.00 | 0.00 | 0.00 | 57 | 1008.0 |
| 20260904153517 | 80 | 100 | 2.0 | 6.0 | 0.00 | 0.00 | 0.00 | 57 | 1008.1 |
| 20260904152017 | 80 | 17 | 1.0 | 3.0 | 0.00 | 0.00 | 0.00 | 61 | 1008.1 |
| 20260904151517 | 80 | 255 | 2.0 | 6.0 | 0.00 | 0.00 | 0.00 | 59 | 1008.2 |
| 20260904151018 | 80 | 16 | 2.0 | 6.0 | 0.00 | 0.00 | 0.00 | 61 | 1008.2 |
| 20260904150517 | 79 | 199 | 2.0 | 5.0 | 0.00 | 0.00 | 0.00 | 60 | 1008.2 |
| 20260904150018 | 79 | 195 | 1.0 | 5.0 | 0.00 | 0.00 | 0.00 | 59 | 1008.2 |
| 20260904145017 | 79 | 311 | 1.0 | 3.0 | 0.00 | 0.00 | 0.00 | 62 | 1008.3 |
| 20260904144517 | 79 | 207 | 2.0 | 3.0 | 0.00 | 0.00 | 0.00 | 63 | 1008.4 |
| 20260904144017 | 79 | 321 | 1.0 | 2.0 | 0.00 | 0.00 | 0.00 | 64 | 1008.3 |
| 20260904143518 | 79 | 82 | 2.0 | 3.0 | 0.00 | 0.00 | 0.00 | 61 | 1008.5 |
| 20260904143017 | 78 | 20 | 1.0 | 5.0 | 0.00 | 0.00 | 0.00 | 64 | 1008.5 |
| 20260904142517 | 79 | 336 | 2.0 | 6.0 | 0.00 | 0.00 | 0.00 | 60 | 1008.5 |
| 20260904141517 | 78 | 195 | 1.0 | 3.0 | 0.00 | 0.00 | 0.00 | 63 | 1008.6 |
| 20260904141018 | 77 | 256 | 1.0 | 3.0 | 0.00 | 0.00 | 0.00 | 69 | 1008.5 |
| 20260904140517 | 77 | 11 | 1.0 | 3.0 | 0.00 | 0.00 | 0.00 | 66 | 1008.6 |
| 20260904140017 | 76 | 262 | 1.0 | 5.0 | 0.00 | 0.00 | 0.00 | 72 | 1008.6 |
| 20260904135517 | 76 | 270 | 1.0 | 2.0 | 0.00 | 0.00 | 0.00 | 78 | 1008.6 |
| 20260904135017 | 76 | 316 | 1.0 | 5.0 | 0.00 | 0.00 | 0.00 | 71 | 1008.4 |
| 20260904133517 | 74 | 275 | 2.0 | 3.0 | 0.00 | 0.00 | 0.00 | 79 | 1008.6 |
| 20260904133017 | 73 | 255 | 1.0 | 2.0 | 0.00 | 0.00 | 0.00 | 83 | 1008.5 |
| 20260904132017 | 72 | 220 | 1.0 | 2.0 | 0.00 | 0.00 | 0.00 | 87 | 1008.7 |
| 20260904131017 | 71 | 266 | 1.0 | 2.0 | 0.00 | 0.00 | 0.00 | 91 | 1008.5 |
| 20260904130517 | 71 | 59 | 0.0 | 2.0 | 0.00 | 0.00 | 0.00 | 86 | 1008.6 |
| 20260904130017 | 71 | 260 | 1.0 | 2.0 | 0.00 | 0.00 | 0.00 | 91 | 1008.6 |
| 20260904125517 | 70 | 249 | 0.0 | 2.0 | 0.00 | 0.00 | 0.00 | 95 | 1008.8 |
| 20260904125017 | 69 | 262 | 1.0 | 3.0 | 0.00 | 0.00 | 0.00 | 97 | 1008.7 |
| 20260904124017 | 67 | 313 | 1.0 | 3.0 | 0.00 | 0.00 | 0.00 | 100 | 1008.7 |
| 20260904123016 | 66 | 203 | 1.0 | 1.0 | 0.00 | 0.00 | 0.00 | 100 | 1008.6 |
| 20260904122017 | 66 | 220 | 0.0 | 0.0 | 0.00 | 0.00 | 0.00 | 100 | 1008.7 |
| 20260904121517 | 66 | 206 | 1.0 | 1.0 | 0.00 | 0.00 | 0.00 | 100 | 1008.7 |
| 20260904121017 | 66 | 231 | 1.0 | 2.0 | 0.00 | 0.00 | 0.00 | 100 | 1008.5 |
| 20260904120517 | 66 | 236 | 0.0 | 0.0 | 0.00 | 0.00 | 0.00 | 100 | 1008.4 |
| 20260904120017 | 66 | 251 | 0.0 | 1.0 | 0.00 | 0.00 | 0.00 | 100 | 1008.4 |
| 20260904115517 | 66 | 184 | 0.0 | 1.0 | 0.00 | 0.00 | 0.00 | 100 | 1008.4 |
| 20260904115017 | 65 | 333 | 0.0 | 1.0 | 0.00 | 0.00 | 0.00 | 100 | 1008.5 |
| 20260904114517 | 65 | 353 | 0.0 | 1.0 | 0.00 | 0.00 | 0.00 | 100 | 1008.5 |
| 20260904114017 | 65 | 51 | 0.0 | 0.0 | 0.00 | 0.00 | 0.00 | 100 | 1008.4 |
| 20260904113517 | 65 | 5 | 0.0 | 0.0 | 0.00 | 0.00 | 0.00 | 100 | 1008.4 |
| 20260904113017 | 65 | 28 | 0.0 | 0.0 | 0.00 | 0.00 | 0.00 | 100 | 1008.4 |
| 20260904112016 | 65 | 217 | 0.0 | 1.0 | 0.00 | 0.02 | 0.00 | 100 | 1008.3 |
| 20260904110516 | 64 | 209 | 0.0 | 0.0 | 0.00 | 0.02 | 0.00 | 100 | 1008.4 |
| 20260904110017 | 64 | 221 | 0.0 | 0.0 | 0.00 | 0.02 | 0.00 | 100 | 1008.4 |
| 20260904105017 | 64 | 233 | 0.0 | 1.0 | 0.00 | 0.04 | 0.00 | 100 | 1008.4 |
| 20260904104516 | 64 | 239 | 0.0 | 0.0 | 0.00 | 0.04 | 0.00 | 100 | 1008.4 |
| 20260904104017 | 64 | 223 | 0.0 | 0.0 | 0.00 | 0.06 | 0.00 | 100 | 1008.4 |
| 20260904103517 | 64 | 236 | 0.0 | 0.0 | 0.00 | 0.08 | 0.00 | 100 | 1008.4 |
| 20260904103017 | 64 | 226 | 0.0 | 0.0 | 0.00 | 0.10 | 0.00 | 100 | 1008.3 |
| 20260904102517 | 64 | 262 | 0.0 | 0.0 | 0.00 | 0.10 | 0.00 | 100 | 1008.2 |
| 20260904102017 | 64 | 262 | 0.0 | 0.0 | 0.00 | 0.12 | 0.00 | 100 | 1008.3 |
| 20260904101516 | 64 | 262 | 0.0 | 0.0 | 0.00 | 0.12 | 0.00 | 100 | 1008.3 |
| 20260904101017 | 63 | 322 | 0.0 | 0.0 | 0.00 | 0.14 | 0.00 | 100 | 1008.2 |
| 20260904100518 | 63 | 263 | 0.0 | 0.0 | 0.00 | 0.14 | 0.00 | 100 | 1008.2 |
| 20260904100016 | 63 | 264 | 0.0 | 0.0 | 0.00 | 0.18 | 0.00 | 100 | 1008.2 |
| 20260904095517 | 63 | 268 | 0.0 | 0.0 | 0.00 | 0.24 | 0.00 | 100 | 1008.2 |
| 20260904095017 | 63 | 268 | 0.0 | 0.0 | 0.00 | 0.26 | 0.00 | 100 | 1008.2 |
| 20260904094517 | 63 | 4 | 0.0 | 1.0 | 0.00 | 0.26 | 0.00 | 100 | 1008.0 |
| 20260904094017 | 63 | 320 | 0.0 | 0.0 | 0.00 | 0.26 | 0.00 | 100 | 1008.0 |
| 20260904093516 | 63 | 239 | 0.0 | 0.0 | 0.00 | 0.26 | 0.00 | 100 | 1008.3 |
| 20260904093017 | 63 | 239 | 0.0 | 0.0 | 0.00 | 0.26 | 0.00 | 100 | 1008.2 |
| 20260904092516 | 63 | 257 | 0.0 | 0.0 | 0.00 | 0.26 | 0.00 | 100 | 1008.3 |
| 20260904092016 | 64 | 220 | 0.0 | 0.0 | 0.00 | 0.26 | 0.00 | 100 | 1008.2 |
| 20260904091516 | 64 | 220 | 0.0 | 0.0 | 0.00 | 0.26 | 0.00 | 100 | 1008.2 |
| 20260904091016 | 64 | 229 | 0.0 | 0.0 | 0.00 | 0.26 | 0.00 | 100 | 1008.1 |
| 20260904085516 | 64 | 34 | 0.0 | 0.0 | 0.00 | 0.26 | 0.00 | 100 | 1007.9 |
| 20260904085016 | 64 | 34 | 0.0 | 0.0 | 0.00 | 0.26 | 0.00 | 100 | 1008.0 |
| 20260904084516 | 64 | 34 | 0.0 | 0.0 | 0.00 | 0.26 | 0.00 | 100 | 1007.9 |
| 20260904084016 | 64 | 34 | 0.0 | 0.0 | 0.00 | 0.26 | 0.00 | 100 | 1008.0 |
| 20260904083516 | 64 | 34 | 0.0 | 0.0 | 0.00 | 0.30 | 0.00 | 100 | 1008.0 |
| 20260904083017 | 64 | 34 | 0.0 | 0.0 | 0.00 | 0.33 | 0.00 | 100 | 1008.1 |
| 20260904082516 | 64 | 34 | 0.0 | 0.0 | 0.00 | 0.35 | 0.00 | 100 | 1008.1 |
| 20260904082017 | 64 | 31 | 0.0 | 0.0 | 0.00 | 0.35 | 0.00 | 100 | 1008.1 |
| 20260904081516 | 64 | 316 | 0.0 | 0.0 | 0.00 | 0.37 | 0.00 | 100 | 1008.1 |
| 20260904081016 | 64 | 316 | 0.0 | 0.0 | 0.00 | 0.39 | 0.00 | 100 | 1008.2 |
| 20260904080517 | 64 | 316 | 0.0 | 0.0 | 0.00 | 0.43 | 0.00 | 100 | 1008.2 |
| 20260904080016 | 65 | 238 | 0.0 | 0.0 | 0.00 | 0.44 | 0.00 | 100 | 1008.3 |
| 20260904075517 | 65 | 238 | 0.0 | 1.0 | 0.00 | 0.48 | 0.00 | 100 | 1008.4 |
| 20260904075016 | 65 | 238 | 0.0 | 1.0 | 0.00 | 0.50 | 0.00 | 100 | 1008.4 |
| 20260904074516 | 65 | 183 | 0.0 | 0.0 | 0.00 | 0.52 | 0.00 | 100 | 1008.4 |
| 20260904074016 | 65 | 219 | 0.0 | 0.0 | 0.00 | 0.54 | 0.00 | 100 | 1008.4 |
| 20260904073516 | 65 | 175 | 0.0 | 0.0 | 0.00 | 0.54 | 0.00 | 100 | 1008.4 |
| 20260904073016 | 65 | 202 | 0.0 | 0.0 | 0.00 | 0.54 | 0.00 | 100 | 1008.6 |
| 20260904071516 | 65 | 204 | 0.0 | 0.0 | 0.00 | 0.54 | 0.00 | 100 | 1008.7 |
| 20260904071016 | 65 | 111 | 0.0 | 0.0 | 0.00 | 0.54 | 0.00 | 100 | 1008.7 |
| 20260904070016 | 65 | 69 | 1.0 | 1.0 | 0.00 | 0.54 | 0.00 | 100 | 1008.7 |
| 20260904065016 | 66 | 207 | 0.0 | 1.0 | 0.00 | 0.54 | 0.00 | 100 | 1009.0 |
| 20260904064516 | 66 | 92 | 0.0 | 0.0 | 0.00 | 0.54 | 0.00 | 100 | 1008.8 |
| 20260904064016 | 66 | 236 | 0.0 | 1.0 | 0.00 | 0.54 | 0.00 | 100 | 1008.8 |
| 20260904063516 | 66 | 326 | 0.0 | 1.0 | 0.00 | 0.54 | 0.00 | 100 | 1008.7 |
| 20260904063016 | 66 | 49 | 0.0 | 1.0 | 0.00 | 0.54 | 0.00 | 100 | 1008.7 |
| 20260904062516 | 66 | 96 | 0.0 | 1.0 | 0.00 | 0.54 | 0.00 | 100 | 1008.7 |
| 20260904062016 | 66 | 35 | 0.0 | 1.0 | 0.00 | 0.54 | 0.00 | 100 | 1008.8 |
| 20260904061516 | 66 | 271 | 1.0 | 1.0 | 0.00 | 0.54 | 0.00 | 100 | 1009.0 |
| 20260904061016 | 66 | 2 | 1.0 | 1.0 | 0.00 | 0.54 | 0.00 | 100 | 1009.0 |
| 20260904060516 | 66 | 148 | 0.0 | 2.0 | 0.00 | 0.54 | 0.00 | 100 | 1009.0 |
| 20260904060016 | 67 | 27 | 1.0 | 2.0 | 0.00 | 0.54 | 0.00 | 100 | 1009.1 |
| 20260904055016 | 68 | 349 | 1.0 | 1.0 | 0.00 | 0.54 | 0.00 | 100 | 1009.1 |
| 20260904054515 | 68 | 3 | 0.0 | 1.0 | 0.00 | 0.54 | 0.00 | 100 | 1009.2 |
| 20260904053515 | 68 | 333 | 0.0 | 1.0 | 0.00 | 0.54 | 0.00 | 100 | 1009.4 |
| 20260904053016 | 68 | 29 | 0.0 | 1.0 | 0.00 | 0.54 | 0.00 | 100 | 1009.4 |
| 20260904052516 | 68 | 342 | 0.0 | 1.0 | 0.00 | 0.54 | 0.00 | 100 | 1009.3 |
| 20260904052016 | 68 | 235 | 1.0 | 1.0 | 0.00 | 0.54 | 0.00 | 100 | 1009.3 |
| 20260904051516 | 68 | 242 | 1.0 | 1.0 | 0.00 | 0.54 | 0.00 | 100 | 1009.3 |
| 20260904051016 | 68 | 235 | 1.0 | 2.0 | 0.00 | 0.54 | 0.00 | 100 | 1009.3 |
| 20260904050516 | 68 | 236 | 1.0 | 2.0 | 0.00 | 0.54 | 0.00 | 100 | 1009.3 |
| 20260904050016 | 68 | 237 | 1.0 | 1.0 | 0.00 | 0.54 | 0.00 | 100 | 1009.4 |
| 20260904045015 | 67 | 231 | 0.0 | 1.0 | 0.00 | 0.54 | 0.00 | 100 | 1009.5 |
| 20260904044516 | 67 | 215 | 0.0 | 1.0 | 0.00 | 0.54 | 0.00 | 100 | 1009.5 |
| 20260904043516 | 67 | 221 | 1.0 | 1.0 | 0.00 | 0.54 | 0.00 | 100 | 1009.7 |
| 20260904043015 | 67 | 213 | 0.0 | 0.0 | 0.00 | 0.54 | 0.00 | 100 | 1009.7 |
| 20260904042516 | 67 | 210 | 0.0 | 0.0 | 0.00 | 0.54 | 0.00 | 100 | 1009.9 |
| 20260904042016 | 67 | 205 | 0.0 | 0.0 | 0.00 | 0.54 | 0.00 | 100 | 1010.0 |
| 20260904041516 | 67 | 205 | 0.0 | 0.0 | 0.00 | 0.54 | 0.00 | 100 | 1009.9 |
| 20260904041016 | 67 | 205 | 0.0 | 1.0 | 0.00 | 0.54 | 0.00 | 100 | 1010.0 |
| 20260904040016 | 67 | 159 | 0.0 | 0.0 | 0.00 | 0.54 | 0.00 | 100 | 1009.9 |
| 20260904035516 | 67 | 105 | 0.0 | 1.0 | 0.00 | 0.54 | 0.54 | 100 | 1010.0 |
| 20260904035016 | 68 | 55 | 1.0 | 1.0 | 0.00 | 0.54 | 0.54 | 100 | 1010.0 |
| 20260904034015 | 68 | 224 | 0.0 | 2.0 | 0.00 | 0.54 | 0.54 | 100 | 1010.0 |
| 20260904033015 | 68 | 75 | 0.0 | 1.0 | 0.00 | 0.54 | 0.54 | 100 | 1010.1 |
| 20260904032516 | 68 | 67 | 1.0 | 1.0 | 0.00 | 0.54 | 0.54 | 100 | 1010.1 |
| 20260904032016 | 68 | 72 | 0.0 | 0.0 | 0.00 | 0.54 | 0.54 | 100 | 1010.1 |
| 20260904031515 | 68 | 87 | 0.0 | 0.0 | 0.00 | 0.54 | 0.54 | 100 | 1010.0 |
| 20260904031016 | 69 | 86 | 0.0 | 1.0 | 0.00 | 0.54 | 0.54 | 100 | 1010.0 |
| 20260904030515 | 69 | 199 | 0.0 | 0.0 | 0.00 | 0.54 | 0.54 | 100 | 1010.2 |
| 20260904030015 | 69 | 203 | 0.0 | 0.0 | 0.00 | 0.54 | 0.54 | 100 | 1010.2 |
| 20260904025015 | 69 | 211 | 0.0 | 0.0 | 0.00 | 0.54 | 0.54 | 100 | 1010.2 |
| 20260904024515 | 69 | 211 | 0.0 | 0.0 | 0.00 | 0.54 | 0.54 | 100 | 1010.2 |
| 20260904023515 | 69 | 198 | 0.0 | 1.0 | 0.00 | 0.54 | 0.54 | 100 | 1010.2 |
| 20260904023015 | 69 | 155 | 0.0 | 0.0 | 0.00 | 0.54 | 0.54 | 100 | 1010.3 |
| 20260904022515 | 69 | 151 | 0.0 | 0.0 | 0.00 | 0.54 | 0.54 | 100 | 1010.4 |
| 20260904021515 | 69 | 151 | 0.0 | 0.0 | 0.00 | 0.54 | 0.54 | 100 | 1010.5 |
| 20260904021015 | 69 | 128 | 0.0 | 0.0 | 0.00 | 0.54 | 0.54 | 100 | 1010.5 |
| 20260904020516 | 69 | 131 | 0.0 | 1.0 | 0.00 | 0.54 | 0.54 | 100 | 1010.5 |
| 20260904020015 | 69 | 156 | 0.0 | 0.0 | 0.00 | 0.54 | 0.54 | 100 | 1010.6 |
| 20260904015516 | 69 | 173 | 0.0 | 1.0 | 0.00 | 0.54 | 0.54 | 100 | 1010.6 |
| 20260904015015 | 69 | 234 | 0.0 | 1.0 | 0.00 | 0.54 | 0.54 | 100 | 1010.8 |
| 20260904014515 | 69 | 157 | 0.0 | 0.0 | 0.00 | 0.54 | 0.54 | 100 | 1010.5 |
| 20260904014016 | 69 | 192 | 0.0 | 0.0 | 0.00 | 0.54 | 0.54 | 100 | 1010.5 |
| 20260904013516 | 69 | 164 | 0.0 | 2.0 | 0.00 | 0.54 | 0.54 | 100 | 1010.6 |
| 20260904013015 | 69 | 160 | 0.0 | 0.0 | 0.00 | 0.54 | 0.54 | 100 | 1010.6 |
| 20260904012515 | 69 | 171 | 0.0 | 0.0 | 0.00 | 0.54 | 0.54 | 100 | 1010.9 |
| 20260904012015 | 69 | 197 | 0.0 | 1.0 | 0.00 | 0.54 | 0.54 | 100 | 1010.8 |
| 20260904011515 | 69 | 214 | 0.0 | 0.0 | 0.00 | 0.54 | 0.54 | 100 | 1010.9 |
| 20260904010515 | 69 | 181 | 0.0 | 0.0 | 0.00 | 0.54 | 0.54 | 100 | 1010.9 |
| 20260904010015 | 69 | 181 | 0.0 | 0.0 | 0.00 | 0.54 | 0.54 | 100 | 1010.8 |
| 20260904005515 | 69 | 181 | 0.0 | 0.0 | 0.00 | 0.54 | 0.54 | 100 | 1010.8 |
| 20260904005015 | 70 | 181 | 0.0 | 0.0 | 0.00 | 0.54 | 0.54 | 100 | 1010.6 |
| 20260904004015 | 70 | 171 | 0.0 | 1.0 | 0.00 | 0.54 | 0.54 | 100 | 1010.8 |
| 20260904003515 | 70 | 175 | 0.0 | 0.0 | 0.00 | 0.54 | 0.54 | 100 | 1010.5 |
| 20260904003015 | 70 | 203 | 0.0 | 1.0 | 0.00 | 0.54 | 0.54 | 100 | 1010.7 |
| 20260904002515 | 70 | 153 | 0.0 | 1.0 | 0.00 | 0.54 | 0.54 | 99 | 1010.4 |
| 20260904002015 | 70 | 169 | 0.0 | 1.0 | 0.00 | 0.54 | 0.54 | 99 | 1010.3 |
| 20260904001515 | 70 | 139 | 0.0 | 1.0 | 0.00 | 0.54 | 0.54 | 99 | 1010.2 |
| 20260904001015 | 70 | 153 | 0.0 | 1.0 | 0.00 | 0.54 | 0.54 | 99 | 1010.2 |
| 20260904000515 | 70 | 165 | 1.0 | 1.0 | 0.00 | 0.54 | 0.54 | 99 | 1010.2 |
| 20260904000015 | 70 | 142 | 0.0 | 0.0 | 0.00 | 0.54 | 0.54 | 99 | 1010.2 |
| 20260903235515 | 71 | 138 | 0.0 | 1.0 | 0.00 | 0.54 | 0.54 | 99 | 1010.0 |
| 20260903235015 | 71 | 134 | 1.0 | 2.0 | 0.00 | 0.54 | 0.54 | 99 | 1010.0 |
| 20260903234515 | 71 | 170 | 0.0 | 1.0 | 0.00 | 0.54 | 0.54 | 100 | 1010.0 |
| 20260903233515 | 71 | 175 | 0.0 | 0.0 | 0.00 | 0.54 | 0.54 | 100 | 1010.0 |
| 20260903233015 | 71 | 157 | 0.0 | 0.0 | 0.00 | 0.54 | 0.54 | 99 | 1010.0 |
| 20260903232515 | 71 | 185 | 0.0 | 1.0 | 0.00 | 0.54 | 0.54 | 99 | 1010.0 |
| 20260903232015 | 72 | 140 | 0.0 | 0.0 | 0.00 | 0.54 | 0.54 | 98 | 1010.1 |
| 20260903231514 | 72 | 123 | 0.0 | 0.0 | 0.00 | 0.54 | 0.54 | 97 | 1010.3 |
| 20260903230015 | 73 | 123 | 0.0 | 0.0 | 0.00 | 0.54 | 0.54 | 95 | 1010.0 |
| 20260903225515 | 73 | 118 | 0.0 | 0.0 | 0.00 | 0.54 | 0.54 | 95 | 1010.0 |
| 20260903224515 | 73 | 184 | 0.0 | 1.0 | 0.00 | 0.54 | 0.54 | 93 | 1010.0 |
| 20260903224015 | 74 | 169 | 0.0 | 0.0 | 0.00 | 0.54 | 0.54 | 93 | 1010.0 |
| 20260903223515 | 74 | 131 | 0.0 | 1.0 | 0.00 | 0.54 | 0.54 | 93 | 1010.0 |
| 20260903223015 | 74 | 73 | 1.0 | 1.0 | 0.00 | 0.54 | 0.54 | 92 | 1010.1 |
| 20260903222515 | 74 | 161 | 0.0 | 0.0 | 0.00 | 0.54 | 0.54 | 91 | 1010.0 |
| 20260903222014 | 75 | 166 | 0.0 | 0.0 | 0.00 | 0.54 | 0.54 | 91 | 1010.1 |
| 20260903221515 | 75 | 174 | 0.0 | 0.0 | 0.00 | 0.54 | 0.54 | 90 | 1010.3 |
| 20260903221015 | 75 | 147 | 0.0 | 0.0 | 0.00 | 0.54 | 0.54 | 89 | 1010.4 |
| 20260903220515 | 75 | 61 | 0.0 | 1.0 | 0.00 | 0.54 | 0.54 | 89 | 1010.6 |
| 20260903220015 | 75 | 86 | 0.0 | 1.0 | 0.00 | 0.54 | 0.54 | 90 | 1010.4 |
| 20260903215514 | 75 | 182 | 0.0 | 0.0 | 0.00 | 0.54 | 0.54 | 87 | 1010.4 |
| 20260903215015 | 75 | 171 | 0.0 | 1.0 | 0.00 | 0.54 | 0.54 | 88 | 1010.4 |
| 20260903214515 | 75 | 138 | 0.0 | 0.0 | 0.00 | 0.54 | 0.54 | 90 | 1010.3 |
| 20260903214014 | 75 | 238 | 0.0 | 1.0 | 0.00 | 0.54 | 0.54 | 89 | 1010.4 |
| 20260903213515 | 76 | 188 | 0.0 | 2.0 | 0.00 | 0.54 | 0.54 | 86 | 1010.3 |
| 20260903213014 | 76 | 36 | 1.0 | 2.0 | 0.00 | 0.54 | 0.54 | 86 | 1010.2 |
| 20260903212514 | 76 | 199 | 0.0 | 1.0 | 0.00 | 0.54 | 0.54 | 88 | 1010.2 |
| 20260903212015 | 75 | 175 | 0.0 | 1.0 | 0.00 | 0.54 | 0.54 | 86 | 1010.2 |
| 20260903211015 | 75 | 183 | 1.0 | 2.0 | 0.00 | 0.54 | 0.54 | 86 | 1010.2 |
| 20260903210015 | 75 | 223 | 0.0 | 1.0 | 0.00 | 0.54 | 0.54 | 87 | 1010.3 |
| 20260903205515 | 75 | 184 | 0.0 | 1.0 | 0.00 | 0.54 | 0.54 | 88 | 1010.3 |
| 20260903204515 | 76 | 155 | 1.0 | 2.0 | 0.00 | 0.54 | 0.54 | 84 | 1010.3 |
| 20260903204014 | 76 | 56 | 1.0 | 2.0 | 0.00 | 0.54 | 0.54 | 85 | 1010.3 |
| 20260903203515 | 77 | 100 | 1.0 | 6.0 | 0.00 | 0.54 | 0.54 | 83 | 1010.3 |
| 20260903203014 | 77 | 54 | 2.0 | 5.0 | 0.00 | 0.54 | 0.54 | 82 | 1010.4 |
| 20260903202514 | 76 | 67 | 0.0 | 2.0 | 0.00 | 0.54 | 0.54 | 84 | 1010.3 |
| 20260903201514 | 75 | 51 | 1.0 | 2.0 | 0.00 | 0.54 | 0.54 | 90 | 1010.4 |
| 20260903201015 | 75 | 73 | 0.0 | 1.0 | 0.00 | 0.54 | 0.54 | 92 | 1010.4 |
| 20260903200514 | 75 | 191 | 0.0 | 0.0 | 0.00 | 0.54 | 0.54 | 90 | 1010.4 |
| 20260903200015 | 75 | 97 | 0.0 | 2.0 | 0.00 | 0.54 | 0.54 | 88 | 1010.4 |
| 20260903195514 | 75 | 101 | 0.0 | 2.0 | 0.00 | 0.54 | 0.54 | 88 | 1010.5 |
| 20260903194514 | 75 | 64 | 0.0 | 2.0 | 0.00 | 0.54 | 0.54 | 85 | 1010.7 |
| 20260903194015 | 76 | 63 | 1.0 | 2.0 | 0.00 | 0.54 | 0.54 | 85 | 1010.6 |
| 20260903193514 | 76 | 64 | 1.0 | 1.0 | 0.00 | 0.54 | 0.54 | 84 | 1010.7 |
| 20260903193015 | 76 | 65 | 1.0 | 2.0 | 0.00 | 0.54 | 0.54 | 85 | 1010.8 |
| 20260903192514 | 77 | 145 | 1.0 | 2.0 | 0.00 | 0.54 | 0.54 | 83 | 1010.8 |
| 20260903192015 | 77 | 19 | 3.0 | 5.0 | 0.00 | 0.54 | 0.54 | 82 | 1010.8 |
| 20260903191514 | 76 | 114 | 2.0 | 5.0 | 0.00 | 0.54 | 0.54 | 85 | 1010.8 |
| 20260903191015 | 75 | 76 | 1.0 | 5.0 | 0.00 | 0.54 | 0.54 | 86 | 1010.6 |
| 20260903190514 | 74 | 77 | 1.0 | 5.0 | 0.00 | 0.54 | 0.54 | 87 | 1010.9 |
| 20260903185014 | 75 | 78 | 1.0 | 5.0 | 0.00 | 0.54 | 0.54 | 87 | 1011.1 |
| 20260903184014 | 73 | 26 | 1.0 | 3.0 | 0.00 | 0.54 | 0.54 | 94 | 1011.2 |
| 20260903183514 | 73 | 51 | 1.0 | 3.0 | 0.00 | 0.54 | 0.54 | 92 | 1011.3 |
| 20260903183014 | 73 | 46 | 1.0 | 2.0 | 0.00 | 0.54 | 0.54 | 92 | 1011.3 |
| 20260903182014 | 73 | 45 | 1.0 | 3.0 | 0.00 | 0.54 | 0.54 | 91 | 1011.5 |
| 20260903181514 | 73 | 88 | 2.0 | 3.0 | 0.00 | 0.54 | 0.54 | 89 | 1011.5 |
| 20260903181014 | 74 | 335 | 2.0 | 3.0 | 0.00 | 0.54 | 0.54 | 91 | 1011.5 |
| 20260903180514 | 74 | 75 | 1.0 | 3.0 | 0.00 | 0.54 | 0.54 | 91 | 1011.4 |
| 20260903180014 | 74 | 52 | 1.0 | 3.0 | 0.00 | 0.54 | 0.54 | 90 | 1011.5 |
| 20260903175514 | 74 | 87 | 2.0 | 5.0 | 0.00 | 0.54 | 0.54 | 88 | 1011.5 |
| 20260903175014 | 75 | 37 | 2.0 | 2.0 | 0.00 | 0.54 | 0.54 | 87 | 1011.4 |
| 20260903174513 | 75 | 41 | 1.0 | 2.0 | 0.00 | 0.54 | 0.54 | 89 | 1011.4 |
| 20260903174014 | 75 | 60 | 1.0 | 2.0 | 0.00 | 0.54 | 0.54 | 85 | 1011.5 |
| 20260903173514 | 75 | 341 | 1.0 | 3.0 | 0.00 | 0.54 | 0.54 | 88 | 1011.5 |
| 20260903173014 | 75 | 73 | 1.0 | 2.0 | 0.00 | 0.54 | 0.54 | 86 | 1011.6 |
| 20260903172514 | 75 | 65 | 1.0 | 2.0 | 0.00 | 0.54 | 0.54 | 87 | 1011.6 |
| 20260903172014 | 76 | 129 | 1.0 | 2.0 | 0.00 | 0.54 | 0.54 | 84 | 1011.7 |
| 20260903171513 | 76 | 248 | 1.0 | 2.0 | 0.00 | 0.54 | 0.54 | 84 | 1011.7 |
| 20260903170514 | 76 | 240 | 1.0 | 2.0 | 0.00 | 0.54 | 0.54 | 86 | 1011.7 |
| 20260903165513 | 75 | 197 | 1.0 | 2.0 | 0.00 | 0.54 | 0.54 | 88 | 1011.6 |
| 20260903164014 | 75 | 168 | 1.0 | 2.0 | 0.00 | 0.54 | 0.54 | 87 | 1011.6 |
| 20260903163514 | 75 | 320 | 1.0 | 2.0 | 0.00 | 0.54 | 0.54 | 88 | 1011.6 |
| 20260903163013 | 74 | 190 | 0.0 | 1.0 | 0.00 | 0.54 | 0.54 | 87 | 1011.6 |
| 20260903162514 | 74 | 160 | 1.0 | 2.0 | 0.00 | 0.54 | 0.54 | 86 | 1011.5 |
| 20260903162013 | 74 | 163 | 1.0 | 2.0 | 0.00 | 0.54 | 0.54 | 93 | 1011.5 |
| 20260903161514 | 73 | 255 | 0.0 | 2.0 | 0.00 | 0.54 | 0.54 | 94 | 1011.5 |
| 20260903161014 | 72 | 318 | 0.0 | 2.0 | 0.00 | 0.54 | 0.54 | 94 | 1011.6 |
| 20260903160514 | 72 | 333 | 1.0 | 2.0 | 0.00 | 0.54 | 0.54 | 93 | 1011.6 |
| 20260903160014 | 72 | 35 | 1.0 | 2.0 | 0.00 | 0.54 | 0.54 | 95 | 1011.8 |
| 20260903155514 | 71 | 35 | 1.0 | 2.0 | 0.00 | 0.54 | 0.54 | 95 | 1011.8 |
| 20260903155014 | 71 | 277 | 1.0 | 2.0 | 0.00 | 0.54 | 0.54 | 95 | 1011.8 |